Location: Franzen
(48.6167°N, 15.3833°E)
Time: 10:37:03
(UTC+00:00)

Meteor 1-27 - Pass Details

Date: 22 April 2021
Orbit: 838 x 892 km, 81.2° (Epoch: 16 May)

Event Time Altitude Azimuth Distance (km) Brightness Sun altitude
Exits shadow 20:14:08 12° 194° (SSW) 2,348 6.2 -19.1°
Maximum altitude 20:19:26 81° 281° (WNW) 901 4.3 -19.7°
Drops below altitude 10° 20:25:18 10° 10° (N) 2,568 7.2 -20.3°
Sets 20:27:47 0° 12° (NNE) 3,515 8.0 -20.6°
